,,PA_Meas_PMT16A,,PR_Meas_QMR101_102,,RH_Meas_QMH101,,SR_Meas_QMS101,,TA_Meas_QMH101,,GenWind,,GenWind,
time,status,PA,status,PR,status,RH,status,SR,status,TA,status,DirAvg,status,SpdAvg,
2013-06-13, 00:00:05,VALID,915.415,VALID,0,VALID,93.3868,VALID,0,VALID,20.2684,VALID,321,VALID,0,
2013-06-13, 00:01:05,VALID,915.402,VALID,0,VALID,93.4555,VALID,0,VALID,20.2293,VALID,33,VALID,0,
2013-06-13, 00:02:05,VALID,915.397,VALID,0,VALID,93.6003,VALID,0,VALID,20.2504,VALID,74,VALID,0,
2013-06-13, 00:03:05,VALID,915.375,VALID,0,VALID,93.5851,VALID,0,VALID,20.2098,VALID,40,VALID,0,
2013-06-13, 00:04:05,VALID,915.372,VALID,0,VALID,93.6537,VALID,0,VALID,20.1903,VALID,23,VALID,0,
2013-06-13, 00:05:05,VALID,915.325,VALID,0,VALID,93.7223,VALID,0,VALID,20.1919,VALID,28,VALID,0,
2013-06-13, 00:06:05,VALID,915.342,VALID,0,VALID,93.7451,VALID,0,VALID,20.1724,VALID,39,VALID,0,
2013-06-13, 00:07:05,VALID,915.341,VALID,0,VALID,93.7604,VALID,0,VALID,20.1513,VALID,350,VALID,0,
2013-06-13, 00:08:05,VALID,915.275,VALID,0,VALID,93.7756,VALID,0,VALID,20.1724,VALID,359,VALID,0,
2013-06-13, 00:09:05,VALID,915.296,VALID,0,VALID,93.89,VALID,0,VALID,20.1318,VALID,22,VALID,0,
2013-06-13, 00:10:05,VALID,915.306,VALID,0,VALID,93.8976,VALID,0,VALID,20.1139,VALID,16,VALID,0,
2013-06-13, 00:11:05,VALID,915.281,VALID,0,VALID,94.012,VALID,0,VALID,20.0733,VALID,29,VALID,0,
2013-06-13, 00:12:05,VALID,915.245,VALID,0,VALID,94.1416,VALID,0,VALID,20.0733,VALID,24,VALID,0,
2013-06-13, 00:13:05,VALID,915.232,VALID,0,VALID,94.1949,VALID,0,VALID,20.0733,VALID,26,VALID,0,
2013-06-13, 00:14:05,VALID,915.216,VALID,0,VALID,94.1949,VALID,0,VALID,20.1139,VALID,30,VALID,0,
2013-06-13, 00:15:05,VALID,915.243,VALID,0,VALID,94.1339,VALID,0,VALID,20.1529,VALID,137,VALID,0,
2013-06-13, 00:16:05,VALID,915.222,VALID,0,VALID,94.0958,VALID,0,VALID,20.1318,VALID,56,VALID,0,
2013-06-13, 00:17:05,VALID,915.233,VALID,0,VALID,94.0577,VALID,0,VALID,20.1529,VALID,337,VALID,0,
2013-06-13, 00:18:05,VALID,915.241,VALID,0,VALID,93.951,VALID,0,VALID,20.1529,VALID,1,VALID,0,
2013-06-13, 00:19:05,VALID,915.228,VALID,0,VALID,93.8976,VALID,0,VALID,20.1724,VALID,36,VALID,0,
2013-06-13, 00:20:05,VALID,915.203,VALID,0,VALID,93.8061,VALID,0,VALID,20.1724,VALID,43,VALID,0,
2013-06-13, 00:21:05,VALID,915.22,VALID,0,VALID,93.7528,VALID,0,VALID,20.1708,VALID,31,VALID,0,
2013-06-13, 00:22:05,VALID,915.206,VALID,0,VALID,93.6994,VALID,0,VALID,20.1919,VALID,359,VALID,0,
2013-06-13, 00:23:05,VALID,915.19,VALID,0,VALID,93.707,VALID,0,VALID,20.1919,VALID,19,VALID,0,
2013-06-13, 00:24:05,VALID,915.174,VALID,0,VALID,93.6842,VALID,0,VALID,20.2114,VALID,301,VALID,0,
2013-06-13, 00:25:05,VALID,915.199,VALID,0,VALID,93.6918,VALID,0,VALID,20.2114,VALID,23,VALID,0,
2013-06-13, 00:26:05,VALID,915.215,VALID,0,VALID,93.6613,VALID,0,VALID,20.1708,VALID,9,VALID,0,
2013-06-13, 00:27:05,VALID,915.214,VALID,0,VALID,93.6842,VALID,0,VALID,20.1513,VALID,46,VALID,0,
2013-06-13, 00:28:05,VALID,915.209,VALID,0,VALID,93.7147,VALID,0,VALID,20.1529,VALID,13,VALID,0,
2013-06-13, 00:29:05,VALID,915.21,VALID,0,VALID,93.7833,VALID,0,VALID,20.1123,VALID,352,VALID,0,
2013-06-13, 00:30:05,VALID,915.203,VALID,0,VALID,93.829,VALID,0,VALID,20.1139,VALID,45,VALID,0,
2013-06-13, 00:31:05,VALID,915.185,VALID,0,VALID,93.9662,VALID,0,VALID,20.0928,VALID,20,VALID,0,
2013-06-13, 00:32:05,VALID,915.167,VALID,0,VALID,94.1263,VALID,0,VALID,20.0944,VALID,33,VALID,0,
2013-06-13, 00:33:05,VALID,915.147,VALID,0,VALID,94.1492,VALID,0,VALID,20.1123,VALID,29,VALID,0,
2013-06-13, 00:34:05,VALID,915.189,VALID,0,VALID,94.1339,VALID,0,VALID,20.1123,VALID,35,VALID,0,
2013-06-13, 00:35:05,VALID,915.186,VALID,0,VALID,94.1339,VALID,0,VALID,20.1513,VALID,39,VALID,0,
2013-06-13, 00:36:05,VALID,915.222,VALID,0,VALID,94.1187,VALID,0,VALID,20.1513,VALID,13,VALID,0,
2013-06-13, 00:37:05,VALID,915.239,VALID,0,VALID,94.1187,VALID,0,VALID,20.1513,VALID,24,VALID,0,
2013-06-13, 00:38:05,VALID,915.203,VALID,0,VALID,94.1034,VALID,0,VALID,20.1708,VALID,357,VALID,0,
2013-06-13, 00:39:05,VALID,915.22,VALID,0,VALID,94.0653,VALID,0,VALID,20.2114,VALID,31,VALID,0,
2013-06-13, 00:40:05,VALID,915.229,VALID,0,VALID,94.0272,VALID,0,VALID,20.2098,VALID,54,VALID,0,
2013-06-13, 00:41:05,VALID,915.213,VALID,0,VALID,93.9205,VALID,0,VALID,20.2489,VALID,34,VALID,0,
2013-06-13, 00:42:05,VALID,915.233,VALID,0,VALID,93.7985,VALID,0,VALID,20.2879,VALID,298,VALID,0,
2013-06-13, 00:43:05,VALID,915.244,VALID,0,VALID,93.6537,VALID,0,VALID,20.2879,VALID,351,VALID,0,
2013-06-13, 00:44:05,VALID,915.199,VALID,0,VALID,93.5469,VALID,0,VALID,20.3089,VALID,178,VALID,0,
2013-06-13, 00:45:05,VALID,915.149,VALID,0,VALID,93.4478,VALID,0,VALID,20.3284,VALID,22,VALID,0,
2013-06-13, 00:46:05,VALID,915.161,VALID,0,VALID,93.364,VALID,0,VALID,20.3674,VALID,33,VALID,0,
2013-06-13, 00:47:05,VALID,915.122,VALID,0,VALID,93.2954,VALID,0,VALID,20.3659,VALID,32,VALID,0,
2013-06-13, 00:48:05,VALID,915.186,VALID,0,VALID,93.1734,VALID,0,VALID,20.3854,VALID,301,VALID,0,
2013-06-13, 00:49:05,VALID,915.136,VALID,0,VALID,93.0133,VALID,0,VALID,20.4454,VALID,213,VALID,0,
2013-06-13, 00:50:05,VALID,915.148,VALID,0,VALID,92.8532,VALID,0,VALID,20.4439,VALID,192,VALID,0,
2013-06-13, 00:51:05,VALID,915.142,VALID,0,VALID,92.7084,VALID,0,VALID,20.504,VALID,58,VALID,0,
2013-06-13, 00:52:05,VALID,915.098,VALID,0,VALID,92.5025,VALID,0,VALID,20.543,VALID,32,VALID,0,
2013-06-13, 00:53:05,VALID,915.092,VALID,0,VALID,92.3882,VALID,0,VALID,20.5024,VALID,47,VALID,0,
2013-06-13, 00:54:05,VALID,915.055,VALID,0,VALID,92.3348,VALID,0,VALID,20.4829,VALID,208,VALID,0,
2013-06-13, 00:55:05,VALID,915.082,VALID,0,VALID,92.2128,VALID,0,VALID,20.5024,VALID,250,VALID,0,
2013-06-13, 00:56:05,VALID,914.983,VALID,0,VALID,92.129,VALID,0,VALID,20.5024,VALID,39,VALID,0,
2013-06-13, 00:57:05,VALID,915.005,VALID,0,VALID,92.0909,VALID,0,VALID,20.5024,VALID,174,VALID,0,
2013-06-13, 00:58:05,VALID,914.964,VALID,0,VALID,91.9155,VALID,0,VALID,20.5219,VALID,179,VALID,0,
2013-06-13, 00:59:05,VALID,915.004,VALID,0,VALID,91.7554,VALID,0,VALID,20.5219,VALID,174,VALID,0,
2013-06-13, 01:00:05,VALID,914.916,VALID,0,VALID,91.664,VALID,0,VALID,20.5219,VALID,114,VALID,0,
2013-06-13, 01:01:05,VALID,914.966,VALID,0,VALID,91.7021,VALID,0,VALID,20.5024,VALID,136,VALID,0,
2013-06-13, 01:02:05,VALID,914.933,VALID,0,VALID,91.7554,VALID,0,VALID,20.5024,VALID,189,VALID,0,
2013-06-13, 01:03:05,VALID,914.854,VALID,0,VALID,91.7173,VALID,0,VALID,20.4829,VALID,44,VALID,0,
2013-06-13, 01:04:05,VALID,914.888,VALID,0,VALID,91.8012,VALID,0,VALID,20.4634,VALID,40,VALID,0,
2013-06-13, 01:05:05,VALID,914.856,VALID,0,VALID,91.9231,VALID,0,VALID,20.465,VALID,29,VALID,0,
2013-06-13, 01:06:05,VALID,914.818,VALID,0,VALID,92.0146,VALID,0,VALID,20.4439,VALID,29,VALID,0,
2013-06-13, 01:07:05,VALID,914.778,VALID,0,VALID,92.0146,VALID,0,VALID,20.4439,VALID,311,VALID,0,
2013-06-13, 01:08:05,VALID,914.771,VALID,0,VALID,91.9994,VALID,0,VALID,20.4634,VALID,351,VALID,0,
2013-06-13, 01:09:05,VALID,914.756,VALID,0,VALID,91.9841,VALID,0,VALID,20.4634,VALID,12,VALID,0,
2013-06-13, 01:10:05,VALID,914.797,VALID,0,VALID,91.9079,VALID,0,VALID,20.4439,VALID,11,VALID,0,
2013-06-13, 01:11:05,VALID,914.774,VALID,0,VALID,91.946,VALID,0,VALID,20.4439,VALID,350,VALID,0,
2013-06-13, 01:12:05,VALID,914.715,VALID,0,VALID,91.9841,VALID,0,VALID,20.4439,VALID,249,VALID,0,
2013-06-13, 01:13:05,VALID,914.691,VALID,0,VALID,92.0146,VALID,0,VALID,20.4049,VALID,13,VALID,0,
2013-06-13, 01:14:05,VALID,914.699,VALID,0,VALID,92.0604,VALID,0,VALID,20.4049,VALID,145,VALID,0,
2013-06-13, 01:15:05,VALID,914.693,VALID,0,VALID,92.0909,VALID,0,VALID,20.4244,VALID,139,VALID,0,
2013-06-13, 01:16:05,VALID,914.661,VALID,0,VALID,92.0832,VALID,0,VALID,20.4244,VALID,55,VALID,0,
2013-06-13, 01:17:05,VALID,914.696,VALID,0,VALID,92.0604,VALID,0,VALID,20.465,VALID,50,VALID,0,
2013-06-13, 01:18:05,VALID,914.712,VALID,0,VALID,92.0909,VALID,0,VALID,20.4244,VALID,354,VALID,0,
2013-06-13, 01:19:05,VALID,914.753,VALID,0,VALID,92.1366,VALID,0,VALID,20.4439,VALID,36,VALID,0,
2013-06-13, 01:20:05,VALID,914.693,VALID,0,VALID,92.1519,VALID,0,VALID,20.4244,VALID,30,VALID,0,
2013-06-13, 01:21:05,VALID,914.707,VALID,0,VALID,92.2433,VALID,0,VALID,20.4439,VALID,8,VALID,0,
2013-06-13, 01:22:05,VALID,914.679,VALID,0,VALID,92.2281,VALID,0,VALID,20.4439,VALID,28,VALID,0,
2013-06-13, 01:23:05,VALID,914.712,VALID,0,VALID,92.3729,VALID,0,VALID,20.4454,VALID,331,VALID,0,
2013-06-13, 01:24:05,VALID,914.692,VALID,0,VALID,92.4339,VALID,0,VALID,20.4244,VALID,8,VALID,0,
2013-06-13, 01:25:05,VALID,914.672,VALID,0,VALID,92.4492,VALID,0,VALID,20.4049,VALID,49,VALID,0,
2013-06-13, 01:26:05,VALID,914.703,VALID,0,VALID,92.472,VALID,0,VALID,20.4244,VALID,295,VALID,0,
2013-06-13, 01:27:05,VALID,914.689,VALID,0,VALID,92.4644,VALID,0,VALID,20.4049,VALID,57,VALID,0,
2013-06-13, 01:28:05,VALID,914.714,VALID,0,VALID,92.472,VALID,0,VALID,20.4259,VALID,31,VALID,0,
2013-06-13, 01:29:05,VALID,914.696,VALID,0,VALID,92.5406,VALID,0.107441,VALID,20.4049,VALID,206,VALID,0,
2013-06-13, 01:30:05,VALID,914.697,VALID,0,VALID,92.5025,VALID,0,VALID,20.4454,VALID,30,VALID,0,
2013-06-13, 01:31:05,VALID,914.608,VALID,0,VALID,92.5178,VALID,0,VALID,20.4049,VALID,4,VALID,0,
2013-06-13, 01:32:05,VALID,914.65,VALID,0,VALID,92.5254,VALID,0,VALID,20.4049,VALID,52,VALID,0,
2013-06-13, 01:33:05,VALID,914.641,VALID,0,VALID,92.5178,VALID,0,VALID,20.4049,VALID,110,VALID,0,
2013-06-13, 01:34:05,VALID,914.617,VALID,0,VALID,92.4492,VALID,0,VALID,20.4244,VALID,196,VALID,0,
2013-06-13, 01:35:05,VALID,914.67,VALID,0,VALID,92.3501,VALID,0,VALID,20.465,VALID,90,VALID,0,
2013-06-13, 01:36:05,VALID,914.695,VALID,0,VALID,92.1595,VALID,0,VALID,20.4439,VALID,148,VALID,0,
2013-06-13, 01:37:05,VALID,914.694,VALID,0,VALID,91.9994,VALID,0,VALID,20.4829,VALID,202,VALID,0,
2013-06-13, 01:38:05,VALID,914.648,VALID,0,VALID,91.8698,VALID,0,VALID,20.543,VALID,114,VALID,0,
2013-06-13, 01:39:05,VALID,914.67,VALID,0,VALID,91.6868,VALID,0,VALID,20.5414,VALID,341,VALID,0,
2013-06-13, 01:40:05,VALID,914.672,VALID,0,VALID,91.4581,VALID,0,VALID,20.582,VALID,44,VALID,0,
2013-06-13, 01:41:05,VALID,914.704,VALID,0,VALID,91.4124,VALID,0,VALID,20.5609,VALID,37,VALID,0,
2013-06-13, 01:42:05,VALID,914.674,VALID,0,VALID,91.481,VALID,0,VALID,20.582,VALID,32,VALID,0,
2013-06-13, 01:43:05,VALID,914.699,VALID,0,VALID,91.4657,VALID,0,VALID,20.5609,VALID,266,VALID,0,
2013-06-13, 01:44:05,VALID,914.68,VALID,0,VALID,91.4505,VALID,0,VALID,20.5594,VALID,31,VALID,0,
2013-06-13, 01:45:05,VALID,914.719,VALID,0,VALID,91.4581,VALID,0,VALID,20.5804,VALID,357,VALID,0,
2013-06-13, 01:46:05,VALID,914.687,VALID,0,VALID,91.3666,VALID,0,VALID,20.5999,VALID,286,VALID,0,
2013-06-13, 01:47:05,VALID,914.563,VALID,0,VALID,91.2294,VALID,0,VALID,20.66,VALID,43,VALID,0,
2013-06-13, 01:48:05,VALID,914.586,VALID,0,VALID,91.2218,VALID,0,VALID,20.6585,VALID,28,VALID,0,
2013-06-13, 01:49:05,VALID,914.564,VALID,0,VALID,91.2142,VALID,0,VALID,20.639,VALID,38,VALID,0,
2013-06-13, 01:50:05,VALID,914.579,VALID,0,VALID,91.1837,VALID,0,VALID,20.6585,VALID,198,VALID,0,
2013-06-13, 01:51:05,VALID,914.583,VALID,0,VALID,91.1913,VALID,0,VALID,20.678,VALID,64,VALID,0,
2013-06-13, 01:52:05,VALID,914.546,VALID,0,VALID,91.2675,VALID,0,VALID,20.6585,VALID,60,VALID,0,
2013-06-13, 01:53:05,VALID,914.563,VALID,0,VALID,91.3666,VALID,0,VALID,20.6585,VALID,193,VALID,0,
2013-06-13, 01:54:05,VALID,914.549,VALID,0,VALID,91.4886,VALID,0,VALID,20.639,VALID,29,VALID,0,
2013-06-13, 01:55:05,VALID,914.516,VALID,0,VALID,91.6716,VALID,0,VALID,20.5999,VALID,49,VALID,0,
2013-06-13, 01:56:05,VALID,914.53,VALID,0,VALID,91.7859,VALID,0,VALID,20.5594,VALID,166,VALID,0,
2013-06-13, 01:57:05,VALID,914.506,VALID,0,VALID,91.7783,VALID,0,VALID,20.5804,VALID,4,VALID,0,
2013-06-13, 01:58:04,VALID,914.52,VALID,0,VALID,91.7707,VALID,0,VALID,20.5804,VALID,224,VALID,0,
2013-06-13, 01:59:04,VALID,914.482,VALID,0,VALID,91.7554,VALID,0,VALID,20.5999,VALID,52,VALID,0,
2013-06-13, 02:00:04,VALID,914.464,VALID,0,VALID,91.7707,VALID,0,VALID,20.5609,VALID,92,VALID,0,
2013-06-13, 02:01:04,VALID,914.471,VALID,0,VALID,91.8317,VALID,0,VALID,20.5609,VALID,138,VALID,0,
2013-06-13, 02:02:04,VALID,914.448,VALID,0,VALID,91.8698,VALID,0,VALID,20.5609,VALID,43,VALID,0,
2013-06-13, 02:03:04,VALID,914.453,VALID,0,VALID,91.8469,VALID,0,VALID,20.5414,VALID,54,VALID,0,
2013-06-13, 02:04:04,VALID,914.422,VALID,0,VALID,91.8622,VALID,0,VALID,20.5609,VALID,146,VALID,0,
2013-06-13, 02:05:04,VALID,914.402,VALID,0,VALID,91.9689,VALID,0,VALID,20.5219,VALID,102,VALID,0,
2013-06-13, 02:06:04,VALID,914.382,VALID,0,VALID,92.068,VALID,0,VALID,20.5219,VALID,88,VALID,0,
2013-06-13, 02:07:04,VALID,914.379,VALID,0,VALID,92.1671,VALID,0,VALID,20.504,VALID,43,VALID,0,
2013-06-13, 02:08:04,VALID,914.324,VALID,0,VALID,92.3272,VALID,0,VALID,20.504,VALID,287,VALID,0,
2013-06-13, 02:09:04,VALID,914.34,VALID,0,VALID,92.3196,VALID,0,VALID,20.4829,VALID,260,VALID,0,
2013-06-13, 02:10:04,VALID,914.316,VALID,0,VALID,92.2433,VALID,0,VALID,20.5024,VALID,42,VALID,0,
2013-06-13, 02:11:04,VALID,914.32,VALID,0,VALID,92.2052,VALID,0,VALID,20.5024,VALID,148,VALID,0,
2013-06-13, 02:12:04,VALID,914.281,VALID,0,VALID,92.2052,VALID,0,VALID,20.5024,VALID,136,VALID,0,
2013-06-13, 02:13:04,VALID,914.301,VALID,0,VALID,92.2052,VALID,0,VALID,20.4829,VALID,8,VALID,0,
2013-06-13, 02:14:04,VALID,914.301,VALID,0,VALID,92.3043,VALID,0,VALID,20.4634,VALID,16,VALID,0,
2013-06-13, 02:15:04,VALID,914.26,VALID,0,VALID,92.4034,VALID,0,VALID,20.4244,VALID,20,VALID,0,
2013-06-13, 02:16:04,VALID,914.233,VALID,0,VALID,92.6016,VALID,0,VALID,20.3854,VALID,23,VALID,0,
2013-06-13, 02:17:04,VALID,914.23,VALID,0,VALID,92.7693,VALID,0,VALID,20.3659,VALID,24,VALID,0,
2013-06-13, 02:18:04,VALID,914.191,VALID,0,VALID,92.9904,VALID,0,VALID,20.3269,VALID,30,VALID,0,
2013-06-13, 02:19:04,VALID,914.216,VALID,0,VALID,93.1963,VALID,0,VALID,20.3269,VALID,25,VALID,0,
2013-06-13, 02:20:04,VALID,914.2,VALID,0,VALID,93.3259,VALID,0,VALID,20.3284,VALID,39,VALID,0,
2013-06-13, 02:21:04,VALID,914.143,VALID,0,VALID,93.4783,VALID,0,VALID,20.3269,VALID,334,VALID,0,
2013-06-13, 02:22:04,VALID,914.117,VALID,0,VALID,93.4631,VALID,0,VALID,20.3674,VALID,32,VALID,0,
2013-06-13, 02:23:04,VALID,914.115,VALID,0,VALID,93.3487,VALID,0,VALID,20.3854,VALID,23,VALID,0,
2013-06-13, 02:24:04,VALID,914.07,VALID,0,VALID,93.2801,VALID,0,VALID,20.3854,VALID,20,VALID,0,
2013-06-13, 02:25:04,VALID,914.049,VALID,0,VALID,93.3182,VALID,0,VALID,20.3659,VALID,18,VALID,0,
2013-06-13, 02:26:04,VALID,914.036,VALID,0,VALID,93.3945,VALID,0,VALID,20.3253,VALID,34,VALID,0,
2013-06-13, 02:27:04,VALID,913.972,VALID,0,VALID,93.4859,VALID,0,VALID,20.3058,VALID,46,VALID,0,
2013-06-13, 02:28:04,VALID,913.952,VALID,0,VALID,93.6003,VALID,0,VALID,20.3074,VALID,277,VALID,0,
2013-06-13, 02:29:04,VALID,913.915,VALID,0,VALID,93.6003,VALID,0,VALID,20.2879,VALID,10,VALID,0,
2013-06-13, 02:30:04,VALID,913.857,VALID,0,VALID,93.6918,VALID,0,VALID,20.2684,VALID,29,VALID,0,
2013-06-13, 02:31:04,VALID,913.833,VALID,0,VALID,93.7604,VALID,0,VALID,20.2489,VALID,35,VALID,0,
2013-06-13, 02:32:04,VALID,913.824,VALID,0,VALID,93.8138,VALID,0,VALID,20.2293,VALID,48,VALID,0,
2013-06-13, 02:33:04,VALID,913.733,VALID,0,VALID,93.8671,VALID,0,VALID,20.2098,VALID,33,VALID,0,
2013-06-13, 02:34:04,VALID,913.81,VALID,0,VALID,93.9815,VALID,0,VALID,20.1708,VALID,166,VALID,0,
2013-06-13, 02:35:04,VALID,913.772,VALID,0,VALID,94.0272,VALID,0,VALID,20.1903,VALID,41,VALID,0,
2013-06-13, 02:36:04,VALID,913.76,VALID,0,VALID,94.0653,VALID,0,VALID,20.1919,VALID,197,VALID,0,
2013-06-13, 02:37:04,VALID,913.849,VALID,0,VALID,94.012,VALID,0,VALID,20.1903,VALID,36,VALID,0,
2013-06-13, 02:38:04,VALID,913.832,VALID,0,VALID,93.9815,VALID,0,VALID,20.2504,VALID,195,VALID,0,
2013-06-13, 02:39:04,VALID,913.823,VALID,0,VALID,93.9052,VALID,0,VALID,20.2293,VALID,85,VALID,0,
2013-06-13, 02:40:04,VALID,913.801,VALID,0,VALID,93.8747,VALID,0,VALID,20.1903,VALID,9,VALID,0,
2013-06-13, 02:41:04,VALID,913.86,VALID,0,VALID,93.8366,VALID,0.107441,VALID,20.1888,VALID,42,VALID,0,
2013-06-13, 02:42:04,VALID,913.824,VALID,0,VALID,93.7299,VALID,0,VALID,20.1903,VALID,42,VALID,0,
2013-06-13, 02:43:04,VALID,913.826,VALID,0,VALID,93.6308,VALID,0,VALID,20.1513,VALID,16,VALID,0,
2013-06-13, 02:44:04,VALID,913.861,VALID,0,VALID,93.7299,VALID,0,VALID,20.1529,VALID,131,VALID,0,
2013-06-13, 02:45:04,VALID,913.915,VALID,0,VALID,93.8443,VALID,0,VALID,20.1513,VALID,343,VALID,0,
2013-06-13, 02:46:04,VALID,913.916,VALID,0,VALID,93.7833,VALID,0,VALID,20.1708,VALID,32,VALID,0,
2013-06-13, 02:47:04,VALID,913.953,VALID,0,VALID,93.6384,VALID,0,VALID,20.2309,VALID,34,VALID,0,
2013-06-13, 02:48:04,VALID,913.894,VALID,0,VALID,93.5698,VALID,0,VALID,20.2114,VALID,33,VALID,0,
2013-06-13, 02:49:04,VALID,913.905,VALID,0,VALID,93.5622,VALID,0,VALID,20.1903,VALID,352,VALID,0,
2013-06-13, 02:50:04,VALID,913.93,VALID,0,VALID,93.5927,VALID,0,VALID,20.1708,VALID,50,VALID,0,
2013-06-13, 02:51:04,VALID,913.917,VALID,0,VALID,93.7147,VALID,0,VALID,20.1919,VALID,30,VALID,0,
2013-06-13, 02:52:04,VALID,913.911,VALID,0,VALID,93.7451,VALID,0,VALID,20.1513,VALID,39,VALID,0,
2013-06-13, 02:53:04,VALID,913.884,VALID,0,VALID,93.89,VALID,0,VALID,20.1123,VALID,60,VALID,0,
2013-06-13, 02:54:04,VALID,913.921,VALID,0,VALID,93.9891,VALID,0,VALID,20.1318,VALID,42,VALID,0,
2013-06-13, 02:55:04,VALID,913.897,VALID,0,VALID,94.012,VALID,0,VALID,20.0928,VALID,35,VALID,0,
2013-06-13, 02:56:04,VALID,913.879,VALID,0,VALID,94.0577,VALID,0,VALID,20.1139,VALID,41,VALID,0,
2013-06-13, 02:57:04,VALID,913.844,VALID,0,VALID,94.1034,VALID,0,VALID,20.0944,VALID,40,VALID,0,
2013-06-13, 02:58:04,VALID,913.817,VALID,0,VALID,94.1568,VALID,0,VALID,20.0553,VALID,36,VALID,0,
2013-06-13, 02:59:04,VALID,913.78,VALID,0,VALID,94.2559,VALID,0,VALID,20.0148,VALID,38,VALID,0,
2013-06-13, 03:00:04,VALID,913.741,VALID,0,VALID,94.3855,VALID,0,VALID,20.0148,VALID,68,VALID,0,
2013-06-13, 03:01:04,VALID,913.744,VALID,0,VALID,94.4313,VALID,0,VALID,19.9953,VALID,301,VALID,0,
2013-06-13, 03:02:04,VALID,913.815,VALID,0,VALID,94.5685,VALID,0,VALID,19.9953,VALID,332,VALID,0,
2013-06-13, 03:03:04,VALID,913.776,VALID,0,VALID,94.6371,VALID,0,VALID,19.9968,VALID,30,VALID,0,
2013-06-13, 03:04:04,VALID,913.712,VALID,0,VALID,94.7514,VALID,0,VALID,19.9968,VALID,11,VALID,0,
2013-06-13, 03:05:04,VALID,913.673,VALID,0,VALID,94.8124,VALID,0,VALID,19.9968,VALID,43,VALID,0,
2013-06-13, 03:06:04,VALID,913.666,VALID,0,VALID,94.8887,VALID,0,VALID,19.9953,VALID,354,VALID,0,
2013-06-13, 03:07:04,VALID,913.675,VALID,0,VALID,94.942,VALID,0,VALID,20.0163,VALID,18,VALID,0,
2013-06-13, 03:08:04,VALID,913.659,VALID,0,VALID,94.9878,VALID,0,VALID,19.9953,VALID,65,VALID,0,
2013-06-13, 03:09:04,VALID,913.588,VALID,0,VALID,95.0259,VALID,0,VALID,20.0163,VALID,26,VALID,0,
2013-06-13, 03:10:04,VALID,913.589,VALID,0,VALID,95.0335,VALID,0,VALID,20.0358,VALID,186,VALID,0,
2013-06-13, 03:11:04,VALID,913.566,VALID,0,VALID,95.0106,VALID,0,VALID,19.9953,VALID,77,VALID,0,
2013-06-13, 03:12:04,VALID,913.591,VALID,0,VALID,95.0259,VALID,0,VALID,20.0148,VALID,13,VALID,0,
2013-06-13, 03:13:04,VALID,913.594,VALID,0,VALID,94.9496,VALID,0,VALID,20.0538,VALID,10,VALID,0,
2013-06-13, 03:14:04,VALID,913.553,VALID,0,VALID,94.8505,VALID,0,VALID,20.1139,VALID,41,VALID,0,
2013-06-13, 03:15:04,VALID,913.58,VALID,0,VALID,94.7514,VALID,0,VALID,20.1529,VALID,33,VALID,0,
2013-06-13, 03:16:04,VALID,913.585,VALID,0,VALID,94.6447,VALID,0,VALID,20.1318,VALID,257,VALID,0,
2013-06-13, 03:17:04,VALID,913.554,VALID,0,VALID,94.5609,VALID,0,VALID,20.1919,VALID,155,VALID,0,
2013-06-13, 03:18:04,VALID,913.481,VALID,0,VALID,94.4236,VALID,0,VALID,20.2114,VALID,29,VALID,0,
2013-06-13, 03:19:04,VALID,913.534,VALID,0,VALID,94.3398,VALID,0,VALID,20.1903,VALID,196,VALID,0,
2013-06-13, 03:20:04,VALID,913.574,VALID,0,VALID,94.2178,VALID,0,VALID,20.1903,VALID,33,VALID,0,
2013-06-13, 03:21:04,VALID,913.565,VALID,0,VALID,94.2254,VALID,0,VALID,20.1919,VALID,263,VALID,0,
2013-06-13, 03:22:04,VALID,913.582,VALID,0,VALID,94.1873,VALID,0,VALID,20.1919,VALID,304,VALID,0,
2013-06-13, 03:23:04,VALID,913.558,VALID,0,VALID,94.2407,VALID,0,VALID,20.1708,VALID,26,VALID,0,
2013-06-13, 03:24:04,VALID,913.511,VALID,0,VALID,94.3017,VALID,0,VALID,20.1919,VALID,24,VALID,0,
2013-06-13, 03:25:04,VALID,913.572,VALID,0,VALID,94.2712,VALID,0,VALID,20.1708,VALID,195,VALID,0,
2013-06-13, 03:26:04,VALID,913.633,VALID,0,VALID,94.1949,VALID,0,VALID,20.1919,VALID,83,VALID,0,
2013-06-13, 03:27:04,VALID,913.608,VALID,0,VALID,94.2026,VALID,0,VALID,20.1919,VALID,349,VALID,0,
2013-06-13, 03:28:04,VALID,913.628,VALID,0,VALID,94.1492,VALID,0,VALID,20.2114,VALID,112,VALID,0,
2013-06-13, 03:29:04,VALID,913.593,VALID,0,VALID,94.1263,VALID,0,VALID,20.2098,VALID,28,VALID,0,
2013-06-13, 03:30:04,VALID,913.583,VALID,0,VALID,94.0348,VALID,0,VALID,20.2504,VALID,271,VALID,0,
2013-06-13, 03:31:04,VALID,913.592,VALID,0,VALID,93.8976,VALID,0,VALID,20.3089,VALID,339,VALID,0,
2013-06-13, 03:32:04,VALID,913.574,VALID,0,VALID,93.707,VALID,0,VALID,20.3269,VALID,50,VALID,0,
2013-06-13, 03:33:04,VALID,913.614,VALID,0,VALID,93.5469,VALID,0,VALID,20.3674,VALID,185,VALID,0,
2013-06-13, 03:34:04,VALID,913.601,VALID,0,VALID,93.4783,VALID,0,VALID,20.3659,VALID,330,VALID,0,
2013-06-13, 03:35:04,VALID,913.576,VALID,0,VALID,93.3716,VALID,0,VALID,20.3869,VALID,89,VALID,0,
2013-06-13, 03:36:04,VALID,913.53,VALID,0,VALID,93.3182,VALID,0,VALID,20.3869,VALID,23,VALID,0,
2013-06-13, 03:37:04,VALID,913.553,VALID,0,VALID,93.1886,VALID,0,VALID,20.4064,VALID,170,VALID,0,
2013-06-13, 03:38:04,VALID,913.535,VALID,0,VALID,93.059,VALID,0,VALID,20.4064,VALID,30,VALID,0,
2013-06-13, 03:39:04,VALID,913.561,VALID,0,VALID,92.9447,VALID,0,VALID,20.4049,VALID,20,VALID,0,
2013-06-13, 03:40:04,VALID,913.526,VALID,0,VALID,92.9218,VALID,0,VALID,20.4064,VALID,3,VALID,0,
2013-06-13, 03:41:04,VALID,913.518,VALID,0,VALID,92.9142,VALID,0,VALID,20.3869,VALID,55,VALID,0,
2013-06-13, 03:42:04,VALID,913.506,VALID,0,VALID,92.8761,VALID,0,VALID,20.3659,VALID,33,VALID,0,
2013-06-13, 03:43:04,VALID,913.485,VALID,0,VALID,92.9294,VALID,0,VALID,20.3479,VALID,278,VALID,0,
2013-06-13, 03:44:04,VALID,913.47,VALID,0,VALID,93.0285,VALID,0,VALID,20.3479,VALID,50,VALID,0,
2013-06-13, 03:45:04,VALID,913.464,VALID,0,VALID,93.0057,VALID,0,VALID,20.3479,VALID,326,VALID,0,
2013-06-13, 03:46:04,VALID,913.502,VALID,0,VALID,92.9676,VALID,0,VALID,20.3479,VALID,203,VALID,0,
2013-06-13, 03:47:04,VALID,913.514,VALID,0,VALID,92.9752,VALID,0,VALID,20.3269,VALID,153,VALID,0,
2013-06-13, 03:48:04,VALID,913.515,VALID,0,VALID,92.9142,VALID,0,VALID,20.3074,VALID,124,VALID,0,
2013-06-13, 03:49:04,VALID,913.533,VALID,0,VALID,93.0057,VALID,0,VALID,20.3074,VALID,317,VALID,0,
2013-06-13, 03:50:04,VALID,913.514,VALID,0,VALID,92.9981,VALID,0,VALID,20.3284,VALID,15,VALID,0,
2013-06-13, 03:51:04,VALID,913.474,VALID,0,VALID,93.0667,VALID,0,VALID,20.3089,VALID,15,VALID,0,
2013-06-13, 03:52:04,VALID,913.515,VALID,0,VALID,93.1124,VALID,0,VALID,20.2684,VALID,357,VALID,0,
2013-06-13, 03:53:04,VALID,913.484,VALID,0,VALID,93.2649,VALID,0,VALID,20.2699,VALID,35,VALID,0,
2013-06-13, 03:54:04,VALID,913.475,VALID,0,VALID,93.3564,VALID,0,VALID,20.2293,VALID,7,VALID,0,
2013-06-13, 03:55:04,VALID,913.459,VALID,0,VALID,93.4859,VALID,0,VALID,20.2309,VALID,5,VALID,0,
2013-06-13, 03:56:04,VALID,913.503,VALID,0,VALID,93.6308,VALID,0,VALID,20.1903,VALID,88,VALID,0,
2013-06-13, 03:57:04,VALID,913.499,VALID,0,VALID,93.6994,VALID,0,VALID,20.1513,VALID,15,VALID,0,
2013-06-13, 03:58:04,VALID,913.465,VALID,0,VALID,93.8595,VALID,0,VALID,20.1123,VALID,16,VALID,0,
2013-06-13, 03:59:04,VALID,913.472,VALID,0,VALID,94.0425,VALID,0,VALID,20.1334,VALID,36,VALID,0,
2013-06-13, 04:00:04,VALID,913.459,VALID,0,VALID,94.1492,VALID,0,VALID,20.0928,VALID,56,VALID,0,
2013-06-13, 04:01:04,VALID,913.434,VALID,0,VALID,94.2864,VALID,0,VALID,20.0944,VALID,29,VALID,0,